This is the latest recevied weather packets stored in our database for station/object OK3FM-14. If no packets are shown the sender has not sent any weather packets the latest 10 day(s).
| Time | Temp. | Humidity | Pressure | Rain* | Wind** | Luminosity | Snow |
|---|---|---|---|---|---|---|---|
| 1787606830 | 14.44° C | 60% | 1020.9 hPa | - | - | - | - |
| 1787606231 | 14.44° C | 60% | 1020.7 hPa | - | - | - | - |
| 1787605631 | 14.44° C | 60% | 1020.8 hPa | - | - | - | - |
| 1787605031 | 14.44° C | 60% | 1020.7 hPa | - | - | - | - |
| 1787604433 | 14.44° C | 59% | 1020.8 hPa | - | - | - | - |
| 1787603830 | 15° C | 57% | 1020.6 hPa | - | - | - | - |
| 1787602631 | 15.56° C | 56% | 1020.8 hPa | - | - | - | - |
| 1787602031 | 15.56° C | 55% | 1020.8 hPa | - | - | - | - |
| 1787601431 | 15° C | 54% | 1020.8 hPa | - | - | - | - |
| 1787600231 | 15.56° C | 54% | 1020.9 hPa | - | - | - | - |
| 1787599631 | 15.56° C | 53% | 1020.7 hPa | - | - | - | - |
| 1787599031 | 15.56° C | 52% | 1020.6 hPa | - | - | - | - |
| 1787598431 | 15.56° C | 52% | 1020.6 hPa | - | - | - | - |
| 1787597831 | 15.56° C | 51% | 1020.7 hPa | - | - | - | - |
| 1787597231 | 15.56° C | 50% | 1020.6 hPa | - | - | - | - |
| 1787596631 | 16.11° C | 49% | 1020.7 hPa | - | - | - | - |
| 1787596031 | 16.11° C | 48% | 1020.8 hPa | - | - | - | - |
| 1787595431 | 16.11° C | 47% | 1020.8 hPa | - | - | - | - |
| 1787594832 | 16.67° C | 47% | 1020.8 hPa | - | - | - | - |
| 1787594231 | 16.67° C | 46% | 1020.9 hPa | - | - | - | - |
| 1787593031 | 17.78° C | 44% | 1021 hPa | - | - | - | - |
| 1787592431 | 17.78° C | 43% | 1020.9 hPa | - | - | - | - |
| 1787591830 | 18.33° C | 42% | 1020.8 hPa | - | - | - | - |
| 1787591231 | 18.33° C | 43% | 1020.8 hPa | - | - | - | - |
| 1787590631 | 18.89° C | 43% | 1020.9 hPa | - | - | - | - |
* Rain since midnight (hover to see other rain measurements)
** Current wind speed in m/s (hover to see current wind gust speed)